Regional Weather Roundup
Issued by NWS Cleveland, OH

Home | Current Version | Previous Version | Graphics & Text | Print | Product List | Glossary On
Versions: 1 2 3 4 5 6 7 8 9 10 11 12 13 14 15 16 17 18 19 20 21 22 23 24 25 26 27 28 29 30 31 32 33 34 35 36 37 38 39 40 41 42 43 44 45 46 47 48 49 50
000
ASUS41 KCLE 262310
RWRCLE
OHIO REGIONAL WEATHER ROUNDUP
NATIONAL WEATHER SERVICE CLEVELAND, OH
700 PM EDT TUE MAY 26 2015

NOTE: "FAIR" INDICATES FEW OR NO CLOUDS BELOW 12,000 FEET WITH NO
SIGNIFICANT WEATHER AND/OR OBSTRUCTIONS TO VISIBILITY.

OHZ001>008-015>018-024>027-034-035-043-044-270000-
   NORTHWEST OHIO

CITY           SKY/WX    TMP DP  RH WIND       PRES   REMARKS
DEFIANCE       CLOUDY    72  68  87 S13       29.91F
FINDLAY        LGT RAIN  69  66  90 SW14      29.96F
TOLEDO EXPRESS LGT RAIN  69  67  93 S10G20    29.92R
TOLEDO EXEC    RAIN      70  65  84 SW20G35   29.94R
LIMA           LGT RAIN  68  68 100 S10       29.96F
$$

OHZ009>014-019>023-028>033-038-089-270000-
   NORTHEAST OHIO

CITY           SKY/WX    TMP DP  RH WIND       PRES   REMARKS
CLE-HOPKINS    PTSUNNY   81  64  56 S15G24    29.98S
CLE-LAKEFRONT  MOSUNNY   83  62  49 S17G26    29.95S
CUY CO. ARPT   PTSUNNY   84  66  54 S20       29.98S
LORAIN-ELYRIA  LGT RAIN  77  66  68 S17G29    29.97S
ASHTABULA      PTSUNNY   81  64  56 S14       30.01F
AKRON-CANTON   LGT RAIN  76  64  66 S23G49    30.05R SQUALL
WOOSTER        PTSUNNY   72  68  87 S14       30.03R
MANSFIELD      PTSUNNY   76  68  76 S13       30.00F
YOUNGSTOWN     MOSUNNY   79  63  57 S13G22    30.04F
$$

OHZ042-051>053-060>062-070>072-077>081-270000-
  SOUTHWEST OHIO

CITY           SKY/WX    TMP DP  RH WIND       PRES   REMARKS
CINC-COVINGTON CLOUDY    72  69  90 S8        30.01S
CINC-LUNKEN    CLOUDY    71  32  23 CALM      30.01S
HAMILTON       CLOUDY    73  69  87 S5        30.00F
DAYTON         CLOUDY    71  68  90 S12       30.00F
WRIGHT-PAT AFB PTSUNNY   70  68  94 S8        30.00F
DAYTON GENERAL CLOUDY    71  67  87 S8        30.00F
WILMINGTON     RAIN      68  66  93 SW8       30.03S FOG
$$

OHZ036-037-039>041-045>050-054>059-063>069-073>076-082>088-270000-
  CENTRAL AND SOUTHEAST OHIO

CITY           SKY/WX    TMP DP  RH WIND       PRES   REMARKS
COLUMBUS       CLOUDY    75  67  76 S10       30.01F
OSU AIRPORT    LGT RAIN  71  63  75 W22G40    30.02R
BOLTON FIELD   PTSUNNY   77  68  73 S10G16    30.02S
RICKENBACK AFB CLOUDY    74  69  83 SE10      30.00F
NEWARK         LGT RAIN  73  67  81 S7        30.02F
MARION         CLOUDY    76  66  71 S12       29.98F
LANCASTER      CLOUDY    74  69  85 S5        30.03F
ZANESVILLE     NOT AVBL
NEW PHILLY     LGT RAIN  77  68  73 SE8       30.05R
$$


USA.gov is the U.S. government's official web portal to all federal, state and local government web resources and services.